Location: Brodeslavy
(49.9527°N, 13.5567°E)
Time: 20:33:19
(UTC+00:00)

Okean 2 - Pass Details

Date: 17 June 2025
Orbit: 522 x 533 km, 82.5° (Epoch: 16 July)

Event Time Altitude Azimuth Distance (km) Brightness Sun altitude
Exits shadow 21:16:21 17° 181° (S) 1,376 4.8 -12.7°
Maximum altitude 21:19:15 75° 99° (E) 554 3.2 -12.9°
Drops below altitude 10° 21:23:10 10° 13° (NNE) 1,784 6.7 -13.1°
Sets 21:25:19 0° 12° (NNE) 2,677 7.8 -13.3°
